STARLINK-1726, 46362

Orbit data source: Space-Track

STARLINK-1726, 46362 is a payload satellite owned by SpaceX/Seattle (US) in LEO that was launched on Thu, 03 Sep 2020 UTC via an FALCON 9 launch vehicle from the Air Force Eastern Test Range (AFETR). Payload-class satellites include a variety of spacecraft equipped with specific instruments for various scientific and technological missions. These include communications satellites like Starlink; space stations such as the ISS; scientific satellites like the Hubble; Earth observation satellites from companies like Planet Labs, Umbra, and HawkEye 360; GPS; miniature CubeSats for education and research; and military/defense satellites.

Loading next visibility...
Identifier
46362, 2020-062AP
Orbit
LEO
Country
Flag of USUS
Related business
Manufacturer
SpaceX/Seattle
Mission
Partially operational Commercial Communications
Bus & Motor
STARLINK, Unknown motor
Mass
260 kg wet, ~248 kg dry
Launch date (UTC)
2020-09-03 (5 years ago)
Launch vehicle
FALCON 9
Launch site
Air Force Eastern Test Range (AFETR)
Object type
Payload
Rocket body
Debris
Shape & HBR
Box + 1 Pan, 10.1 m
Radar Cross Section
13.562 m², Large (>1 m²)

Expand to show TLE details & history
Last TLE update: 10 hours ago

TLE from 10 hours ago
0 STARLINK-1726
1 46362U 20062AP  25289.15726185  .00159188  00000-0  41496-2 0  9990
2 46362  53.0545 243.8272 0010793  32.6435 327.5232 15.37724156283396
Epoch: 2025-10-16T03:46Z
TLE epoch observation values (Epoch: 2025-10-16T03:46:27.423Z)
Latitude
-0.0001°
Longitude
162.29184°
Altitude
447.515 km
Speed
7.648 km/s
True Right ascension
16h 15m 18s
True Declination
0° 00' 00"
Sunlit
Object was in daylight at epoch
Visualization orbit readout
Latitude
Unknown
Longitude
Unknown
Altitude
Unknown
Speed
Unknown
Apparent Right ascension
Unknown
Apparent Declination
Unknown
Sunlit
N/A
Visualization observer readout
Local Sidereal Time
08:21:03
Azimuth
Unknown
Elevation
Unknown
Doppler factor
Unknown
Orbital elements
Apogee altitude
460.488 km
Perigee altitude
445.742 km
Semi-major axis
6,831.252 km
Eccentricity
0.00108
Inclination
53.0545°
RAAN
243.8272°
Arg. of periapsis
32.6435°
True anomaly
327.45671°
Mean anomaly
327.5232°
Eccentric anomaly
327.48996°
Mean motion
3.84408 °/min
Orbital period
93.65 mins
BSTAR
0.0041496
Loading maneuver chart data...
Computing Atmospheric mass density...

Documentation

Showing up to 5 results
|